Flag for U.S.A. Weather past 2 weeks in New York, New York, U.S.A.

Now
76 °F

Sunny.


Feels Like: 78 °F
Forecast: 72 / 87 °F
Wind: No wind

Location: New York City - Central Park

Current Time: Aug 2, 2015 at 9:24:26 AM

Latest Report: Aug 2, 2015 at 8:51 AM


Visibility: 10 mi

Pressure: 29.92 "Hg

Humidity: 52%

Dew point: 57 °F

Location of New YorkLocation

Historic Weather in New York — Graph

°F

New York temperature yesterday

Maximum temperature yesterday: 88 °F (at 1:51 PM)
Minimum temperature yesterday: 75 °F (at 5:51 AM)
Average temperature yesterday: 81 °F

Past Weeks' High & Low Weather Summary

 TemperatureHumidityPressure
High95 °F (Jul 28, 2:51 PM)91% (Jul 18, 9:51 AM)30.03 "Hg (Jul 18, 9:51 AM)
Low68 °F (Jul 23, 5:51 AM)26% (Jul 24, 1:51 PM)29.57 "Hg (Jul 21, 5:51 PM)
Average81 °F54%29.87 "Hg
* Reported Jul 18 7:51 AM — Aug 2 7:51 AM, New York, Weather by CustomWeather, © 2015

Note: Actual official high and low records may vary slightly from our data, if they occured in-between our weather recording intervals... More about our weather records

Advertising

New York weather history for previous 24 hours

 ConditionsComfort  
Time TempWeatherWind HumidityBarometerVisibility
7:51 AM
Sun, Aug 2
74 °FSunny.No wind56%29.91 "Hg10 mi
6:51 AM71 °FClear.No wind66%29.90 "Hg10 mi
5:51 AM71 °FClear.No wind59%29.88 "Hg10 mi
4:51 AM74 °FClear.No wind53%29.87 "Hg10 mi
3:51 AM74 °FClear.No wind52%29.87 "Hg10 mi
2:51 AM75 °FClear.5 mph50%29.87 "Hg10 mi
1:51 AM76 °FPassing clouds.3 mph48%29.86 "Hg10 mi
12:51 AM77 °FPassing clouds.No wind45%29.85 "Hg10 mi
11:51 PM
Sat, Aug 1
78 °FClear.No wind43%29.85 "Hg10 mi
10:51 PM79 °FClear.5 mph44%29.85 "Hg10 mi
9:51 PM81 °FClear.3 mph42%29.84 "Hg10 mi
8:51 PM81 °FSunny.3 mph42%29.82 "Hg10 mi
7:51 PM84 °FSunny.9 mph37%29.80 "Hg10 mi
6:51 PM85 °FPassing clouds.5 mph37%29.78 "Hg10 mi
5:51 PM86 °FBroken clouds.6 mph36%29.77 "Hg10 mi
4:51 PM84 °FPassing clouds.5 mph40%29.77 "Hg10 mi
3:51 PM87 °FScattered clouds.8 mph36%29.76 "Hg10 mi
2:51 PM88 °FPassing clouds.N/A34%29.77 "Hg10 mi
1:51 PM88 °FSunny.12 mph30%29.78 "Hg10 mi
12:51 PM85 °FPassing clouds.3 mph42%29.80 "Hg10 mi
11:51 AM84 °FPassing clouds.3 mph46%29.81 "Hg10 mi
10:51 AM81 °FPartly sunny.7 mph53%29.80 "Hg10 mi
9:51 AM81 °FPassing clouds.6 mph49%29.80 "Hg10 mi
Weather by CustomWeather, © 2015

See weather overviewHow to use our weather pages